Regional Weather Roundup
Issued by NWS

Home | Current Version | Previous Version | Text Only | Print | Product List | Glossary Off
Versions: 1 2 3 4 5 6 7 8 9 10 11 12 13 14 15 16 17 18 19 20 21 22 23 24 25 26 27 28 29 30 31 32 33 34 35 36 37 38 39 40 41 42 43 44 45 46 47 48 49 50

000
ASUS43 KDTX 061110
RWRMI
MICHIGAN HOURLY REGIONAL WEATHER ROUNDUP
NATIONAL WEATHER SERVICE DETROIT/PONTIAC MI
600 AM EST TUE DEC 06 2016

NOTE: "FAIR" INDICATES FEW OR NO CLOUDS BELOW 12,000 FEET WITH NO
SIGNIFICANT WEATHER AND/OR OBSTRUCTION TO VISIBILITY.

MIZ047>049-052>055-059>063-066>070-074>076-081>083-061200-
SOUTHEAST LOWER MICHIGAN

CITY           SKY/WX    TMP DP  RH WIND       PRES   REMARKS
ADRIAN         CLOUDY    32  31  96 E8        29.88F WCI  25
ALMA           MOCLDY    30  29  94 E6        29.93F WCI  24
ANN ARBOR      PTCLDY    34  31  88 NE8       29.90F WCI  27
BAD AXE        CLOUDY    29  28  96 CALM      29.98F
CARO           CLOUDY    29  28  94 E5        29.95F WCI  24
DETROIT CITY   CLOUDY    37  34  89 E10       29.94F WCI  30
DETROIT        CLOUDY    35  32  88 E8        29.91F FOG     WCI  29
FLINT          MOCLDY    28  26  92 E8        29.94F WCI  20
GROSSE ILE     PTCLDY    33  31  93 E9        29.90F WCI  25
HILLSDALE      CLOUDY    32  30  93 E13       29.83F WCI  22
HOWELL         CLOUDY    34  31  88 E10       29.91S WCI  26

CITY           SKY/WX    TMP DP  RH WIND       PRES   REMARKS
JACKSON        FLURRIES  33  30  88 E9        29.86F WCI  25
LAMBERTVILLE   CLOUDY    38  32  78 E7        29.89F WCI  33
LANSING        PTCLDY    32  28  85 E9        29.90F WCI  24
LAPEER         NOT AVBL
MASON          PTCLDY    32  31  96 E7        29.89F WCI  26
MONROE         PTCLDY    38  34  83 E10       29.89F WCI  31
MT. CLEMENS    CLOUDY    35  32  88 E12       29.94F WCI  27
PONTIAC        CLOUDY    34  30  85 E8        29.91F WCI  27
PORT HOPE        N/A     30  29  96 S3        29.97F
PORT HURON     MOCLDY    28  27  93 E3        29.99S
TRI CITIES     PTCLDY    29  28  96 E7        29.95F WCI  22
MIDLAND        FAIR      29  28  94 E6        29.94F FOG     WCI  23
TROY           PTCLDY    34  31  88 NE7       29.95F WCI  28
SAGINAW HB     PTCLDY    30  27  86 NE5       29.95F FOG     WCI  25
$$
MIZ043>046-050>051-056>058-064>065-071>073-077>080-061200-
SOUTHWEST LOWER MICHIGAN

CITY           SKY/WX    TMP DP  RH WIND       PRES   REMARKS
BATTLE CREEK   PTCLDY    31  29  92 E7        29.86F WCI  24
BENTON HARBOR  MOCLDY    31  27  85 E7        29.83F FOG     WCI  24
BIG RAPIDS     PTCLDY    30  27  87 SE6       29.89F FOG     WCI  24
COLDWATER      PTCLDY    34  30  85 E13       29.83F WCI  25
FREMONT        FAIR      30  26  87 E6        29.89F WCI  24
HOLLAND        PTCLDY    28  26  92 E6        29.87F WCI  22
GRAND RAPIDS   MOCLDY    30  27  88 E16G22    29.89F FOG     WCI  19
IONIA          CLOUDY    30  29  95 E10       29.88F FOG     WCI  21
KALAMAZOO      MOCLDY    30  26  85 NE5       29.85F FOG     WCI  25
LUDINGTON      MOCLDY    31  29  94 E7        29.87F WCI  24
MARSHALL       CLOUDY    31  30  96 E5        29.86F WCI  26
MOUNT PLEASANT PTCLDY    28  27  98 E5        29.92F FOG     WCI  22
MUSKEGON       PTCLDY    30  28  92 E9        29.89F WCI  22
SOUTH HAVEN    PTCLDY    32  30  92 E5        29.84F WCI  27
$$
MIZ016>042-061200-
NORTHERN LOWER MICHIGAN

CITY           SKY/WX    TMP DP  RH WIND       PRES   REMARKS
ALPENA         CLOUDY    30  28  92 CALM      29.98F
BEAVER ISLAND  CLOUDY    38  36  91 SE10G16   29.90F WCI  31
BELLAIRE       MOCLDY    33  32  95 CALM      29.92F
CADILLAC       PTCLDY    29  27  90 E9        29.87F WCI  21
CHARLEVOIX     MOCLDY    35  32  89 SE9       29.94F WCI  28
FRANKFORT      CLOUDY    35  32  89 E6        29.88F WCI  30
GAYLORD        CLOUDY    30  27  88 SE7       29.92F FOG     WCI  23
GRAYLING       CLOUDY    32  31  96 SE7       29.94F FOG     WCI  25
HARBOR SPRINGS MOCLDY    33  31  92 NE5       29.94S WCI  28
HOUGHTON LAKE  PTCLDY    29  26  89 E6        29.93F WCI  23
MANISTEE       CLOUDY    32  29  88 SE6       29.89F WCI  26
OSCODA         CLOUDY    30  28  93 CALM      29.98F FOG
PELLSTON       CLOUDY    34  30  85 SE3       29.94F
ROGERS CITY    CLOUDY    34  30  86 SE3       29.97F
TRAVERSE CITY  PTCLDY    35  30  82 VRB5      29.89F WCI  31
$$
MIZ007>008-015-061200-
EASTERN UPPER MICHIGAN

CITY           SKY/WX    TMP DP  RH WIND       PRES   REMARKS
KINROSS        LGT RAIN  34  33  96 SE9       29.94F WCI  27
MACKINAC ISLAN CLOUDY    36  32  85 SE5       29.94F WCI  32
NEWBERRY       CLOUDY    34  33  96 E8        29.87F FOG     WCI  27
S. S. MARIE    CLOUDY    35  32  88 E6        29.94F WCI  30
MUNISING         N/A     37  34  89 S12G20    29.82F WCI  29
$$
MIZ004>006-011>014-085-061200-
CENTRAL UPPER MICHIGAN

CITY           SKY/WX    TMP DP  RH WIND       PRES   REMARKS
MANISTIQUE     CLOUDY    40  38  93 SE15G23   29.86F WCI  32
ESCANABA       CLOUDY    41  36  82 S12G21    29.84F
MENOMINEE      CLOUDY    39  36  87 S10       29.84F WCI  32
SAWYER-GWINN   FOG       34  34  99 S8        29.80F VSB 3/4 WCI  28
$$
MIZ001>003-009>011-084-061200-
WESTERN UPPER MICHIGAN

CITY           SKY/WX    TMP DP  RH WIND       PRES   REMARKS
IRON MOUNTAIN  CLOUDY    35  32  88 SE9       29.77F FOG     WCI  28
HOUGHTON       CLOUDY    36  30  79 SE9       29.71F WCI  29
COPPER HARBOR    N/A     39  35  86 SW12G25   29.76F WCI  32
IRONWOOD       CLOUDY    34  29  82 S12G18    29.66S WCI  25
$$

ABBREVIATIONS USED IN REMARKS
   TC - TEMPERATURE IN CELSIUS
  WCI - WIND CHILL INDEX
   HX - HEAT INDEX
  VSB - VISIBILITY





USA.gov is the U.S. government's official web portal to all federal, state and local government web resources and services.